Regional Weather Roundup
Issued by NWS Goodland, KS

Home | Current Version | Previous Version | Text Only | Print | Product List | Glossary Off
Versions: 1 2 3 4 5 6 7 8 9 10 11 12 13 14 15 16 17 18 19 20 21 22 23 24 25 26 27 28 29 30 31 32 33 34 35 36 37 38 39 40 41 42 43 44 45 46 47 48 49 50

000
ASUS43 KGLD 311259
RWRGLD

GOODLAND FORECAST AREA HOURLY WEATHER ROUNDUP
NATIONAL WEATHER SERVICE GOODLAND KS
700 AM MDT FRI JUL 31 2015

...OFFICIAL OBSERVATIONS...

CITY           SKY/WX    TMP DP  RH WIND       PRES   REMARKS
GOODLAND KS    SUNNY     63  61  93 W3        30.28S FOG
HILL CITY KS   SUNNY     71  69  93 CALM      30.22S
IMPERIAL NEB   SUNNY     63  57  81 CALM      30.26R
MCCOOK NEB     SUNNY     67  64  90 CALM      30.23R
AKRON CO       SUNNY     62  55  77 S8        30.33R
BURLINGTON CO  SUNNY     63  60  90 CALM      30.31S
LIMON CO       SUNNY     58  56  93 CALM      30.37R
$$

...UNOFFICIAL OBSERVATIONS...

CITY           SKY/WX    TMP DP  RH WIND       PRES   REMARKS
SHARON SPRINGS   N/A     66  65  96 N7          N/A
KIT CARSON CO    N/A     62  58  88 MISG        N/A
YUMA CO          N/A     60  57  91 CALM        N/A
$$



USA.gov is the U.S. government's official web portal to all federal, state and local government web resources and services.